This demonstration page uses our WeatherBlox Daily Observations layout. Learn more.

Left ArrowRight Arrow

38.88101, -77.10428

Hourly Observations for January 26, 2021

Temp ( °F °C ) Dew Point ( °F °C ) Humidity (%) Winds ( mph kmh ) Pressure ( in mb ) Visibility ( mi km ) Precip ( " mm )
12:52 am 00:52 Cloudy with Light Freezing Drizzle 32 0 30 -1.1 92 92 NE 8 13 30.04 1017 4 6 0.00 0.00
1:13 am 01:13 Cloudy with Light Freezing Rain 32 0 31 -0.6 96 96 NE 9 15 30.04 1017 3 5 0.00 0.00
1:46 am 01:46 Cloudy with Light Freezing Drizzle 34 1 30 -1 87 87 NE 6 9 30.03 1017 3 4 0.01 0.25
1:49 am 01:49 Cloudy with Drizzle 34 1 30 -1 87 87 NE 7 11 30.03 1017 3 4 0.01 0.25
1:52 am 01:52 Cloudy with Light Freezing Drizzle 32 0 31 -0.6 96 96 NE 6 9 30.02 1017 3 4 0.01 0.25
2:16 am 02:16 Cloudy with Drizzle 33 0.6 31 -0.6 92 92 ENE 6 9 30.02 1017 3 5 0.00 0.00
2:43 am 02:43 Cloudy with Drizzle 33 0.6 31 -0.6 92 92 NE 8 13 30.02 1017 3 4 0.01 0.25
2:52 am 02:52 Cloudy with Drizzle 33 0.6 31 -0.6 92 92 NE 8 13 30.01 1016 3 4 0.01 0.25
3:32 am 03:32 Cloudy with Drizzle 33 0.6 31 -0.6 92 92 ENE 8 13 30.00 1016 3 5 0.00 0.00
3:52 am 03:52 Cloudy with Drizzle 33 0.6 31 -0.6 92 92 NE 7 11 29.99 1016 5 8 0.00 0.00
4:52 am 04:52 Cloudy with Drizzle 33 0.6 31 -0.6 92 92 E 3 6 29.99 1016 5 8 0.00 0.00
5:11 am 05:11 Cloudy with Drizzle 33 0.6 31 -0.6 92 92 ESE 3 6 29.99 1016 3 4 0.01 0.25
5:20 am 05:20 Cloudy with Drizzle 33 0.6 31 -0.6 92 92 E 5 7 29.99 1016 2 3 0.01 0.25
5:40 am 05:40 Cloudy with Drizzle 33 0.6 32 0 96 96 E 3 6 29.99 1016 2 3 0.01 0.25
5:52 am 05:52 Cloudy with Drizzle 33 0.6 32 0 96 96 E 5 7 29.98 1015 3 4 0.01 0.25
6:10 am 06:10 Cloudy with Drizzle 33 0.6 31 -0.6 92 92 NE 5 7 29.98 1015 3 5 0.00 0.00
6:52 am 06:52 Cloudy with Drizzle 33 0.6 31 -0.6 92 92 NNE 6 9 29.98 1015 5 8 0.00 0.00
7:21 am 07:21 Cloudy with Drizzle 33 0.6 32 0 96 96 ENE 6 9 29.98 1015 2 2 0.01 0.25
7:52 am 07:52 Cloudy with Light Rain 33 0.6 32 0 96 96 ENE 3 6 29.96 1015 2 3 0.02 0.51
8:11 am 08:11 Cloudy with Mist and Fog 33 0.6 32 0 96 96 NE 5 7 29.96 1015 3 5 0.00 0.00
8:52 am 08:52 Cloudy with Mist and Fog 34 1.1 32 0 92 92 NE 6 9 29.96 1015 5 8 0.00 0.00
9:02 am 09:02 Cloudy with Light Rain 34 1.1 32 0 92 92 NE 6 9 29.96 1015 3 4 0.00 0.00
9:11 am 09:11 Cloudy with Drizzle 34 1.1 32 0 92 92 ENE 7 11 29.95 1014 2 2 0.00 0.00
9:52 am 09:52 Cloudy with Mist and Fog 34 1.1 32 0 92 92 NE 5 7 29.93 1013 2 3 0.01 0.25
9:59 am 09:59 Cloudy with Mist and Fog 34 1.1 33 0.6 97 97 NE 3 6 29.93 1014 2 3 0.00 0.00
10:52 am 10:52 Cloudy with Drizzle 35 1.7 33 0.6 93 93 NNE 3 6 29.94 1014 1 2 0.00 0.00
11:52 am 11:52 Cloudy with Drizzle 35 1.7 34 1.1 96 96 NNE 3 6 29.90 1013 2 2 0.01 0.25
12:52 pm 12:52 Cloudy with Drizzle 36 2.2 34 1.1 93 93 Calm 29.88 1012 2 2 0.00 0.00
1:52 pm 13:52 Cloudy with Drizzle 36 2.2 35 1.7 97 97 Calm 29.85 1011 1 2 0.00 0.00
2:07 pm 14:07 Cloudy with Drizzle 36 2.2 35 1.7 97 97 NE 5 7 29.84 1011 2 2 0.00 0.00
2:20 pm 14:20 Cloudy with Drizzle 36 2.2 35 1.7 97 97 ENE 5 7 29.83 1010 1 2 0.00 0.00
2:52 pm 14:52 Cloudy with Drizzle 36 2.2 34 1.1 93 93 NNE 3 6 29.83 1010 2 2 0.00 0.00
3:52 pm 15:52 Cloudy with Drizzle 37 2.8 35 1.7 93 93 NNE 5 7 29.84 1010 1 2 0.00 0.00
4:35 pm 16:35 Cloudy with Drizzle 37 2.8 35 1.7 93 93 NNE 5 7 29.86 1011 3 5 0.00 0.00
4:37 pm 16:37 Cloudy with Drizzle 37 2.8 35 1.7 93 93 N 3 6 29.86 1011 3 5 0.00 0.00
4:52 pm 16:52 Cloudy with Drizzle 37 2.8 35 1.7 93 93 NE 3 6 29.86 1011 4 6 0.00 0.00
5:10 pm 17:10 Cloudy with Drizzle 37 2.8 35 1.7 93 93 ENE 5 7 29.86 1011 3 4 0.00 0.00
5:31 pm 17:31 Cloudy with Drizzle 37 2.8 35 1.7 93 93 ENE 6 9 29.87 1012 3 5 0.00 0.00
5:52 pm 17:52 Cloudy with Drizzle 37 2.8 35 1.7 93 93 NE 5 7 29.86 1011 4 6 0.00 0.00
6:12 pm 18:12 Cloudy with Drizzle 37 2.8 35 1.7 93 93 NE 5 7 29.87 1012 3 4 0.00 0.00
6:16 pm 18:16 Cloudy with Drizzle 37 2.8 35 1.7 93 93 NNE 5 7 29.87 1012 3 5 0.00 0.00
6:52 pm 18:52 Cloudy with Drizzle 37 2.8 36 2.2 96 96 N 6 9 29.88 1012 4 6 0.00 0.00
7:52 pm 19:52 Cloudy with Drizzle 37 2.8 36 2.2 96 96 N 5 7 29.90 1013 5 8 0.00 0.00
8:52 pm 20:52 Cloudy with Drizzle 37 2.8 36 2.2 96 96 Calm 29.90 1012 4 6 0.00 0.00
9:52 pm 21:52 Cloudy 38 3.3 35 1.7 89 89 WSW 3 6 29.90 1013 8 13 0.00 0.00
10:52 pm 22:52 Cloudy 38 3.3 36 2.2 93 93 W 7 11 29.91 1013 7 11 0.00 0.00
11:52 pm 23:52 Cloudy 37 2.8 35 1.7 93 93 WSW 5 7 29.91 1013 7 11 0.00 0.00

Powered by AerisWeather